Preview of NWS' New Version of Forecast
This preview is not operational and should not be used for support decisions.

Regional Weather Roundup (RWR)

Issued by National Weather Service (NWS)

                            
000
ASUS43 KTOP 171559
RWRKS 

WEATHER ROUNDUP FOR KANSAS
NATIONAL WEATHER SERVICE GOODLAND KS
1100 AM CDT SAT AUG 17 2019

NOTE:  "FAIR" INDICATES FEW OR NO CLOUDS BELOW 12,000 FEET WITH NO
SIGNIFICANT WEATHER AND/OR OBSTRUCTIONS TO VISIBILITY.

KSZ001>006-013>018-027>032-041>047-171700-
NORTHWEST KANSAS
  
CITY           SKY/WX    TMP DP  RH WIND       PRES   REMARKS
GOODLAND       SUNNY     78  62  57 SW14      29.86F                  
HAYS           SUNNY     83  68  60 S16       29.84R                  
HILL CITY      SUNNY     83  65  54 S13       29.84F                  
RUSSELL        SUNNY     81  68  64 S20       29.83R                  
$$

KSZ061>065-074>080-084>089-171700-
SOUTHWEST KANSAS
  
CITY           SKY/WX    TMP DP  RH WIND       PRES   REMARKS
DODGE CITY     SUNNY     85  63  47 S22G30    29.84F                  
GARDEN CITY    SUNNY     83  62  49 S18G24    29.85R                  
GREAT BEND     SUNNY     81  68  64 SE18G24   29.84R                  
LIBERAL        SUNNY     84  62  47 S9        29.87R                  
$$

KSZ066>073-081>083-090>101-171700-
SOUTHEAST KANSAS
  
CITY           SKY/WX    TMP DP  RH WIND       PRES   REMARKS
CHANUTE        SUNNY     74  69  85 S13       29.89F                  
COFFEYVILLE    PTSUNNY   70  67  90 S8        29.92F                  
HUTCHINSON     MOSUNNY   76  66  71 SE12      29.82R                  
MEDICINE LODGE   N/A     80  68  66 SE12G25   29.82F                  
NEWTON         SUNNY     74  67  78 SE9       29.87R                  
PARSONS        LGT RAIN  72  69  90 S6        29.91F                  
WICHITA INTL   PTSUNNY   81  66  60 S20G32    29.83F                  
WICHITA JABRA  LGT RAIN  76  67  73 S17G30    29.83R                  
WICHITA MCCONL LGT RAIN  76  65  66 SE18      29.83F                  
WINFIELD       MOSUNNY   74  65  73 SE12G18   29.89F                  
$$

KSZ007>012-019>026-033>040-048>060-102>105-171700-
NORTHEAST KANSAS
  
CITY           SKY/WX    TMP DP  RH WIND       PRES   REMARKS
CONCORDIA      SUNNY     79  68  69 S15G21    29.83R                  
EMPORIA        MOSUNNY   75  69  81 S14G23    29.88R                  
LAWRENCE       SUNNY     78  67  68 S14       29.87S                  
MANHATTAN      SUNNY     79  68  69 SE9       29.85R                  
OLATHE IND     SUNNY     75  68  78 S12       29.89R                  
OLATHE EXE     SUNNY     73  68  84 S14       29.89R                  
SALINA         MOSUNNY   78  67  68 SE14      29.83S                  
TOPEKA BILLARD SUNNY     76  66  71 SE13G22   29.87R                  
TOPEKA FORBES  SUNNY     78  67  68 SE16      29.88R                  
$$